Location: Carlingford
(46.7848°N, 67.7474°W)
Time: 06:10:31
(UTC+00:00)

Envisat - Pass Details

Date: 10 December 2022
Orbit: 763 x 765 km, 98.2° (Epoch: 27 January)

Event Time Altitude Azimuth Distance (km) Brightness Sun altitude
Rises 09:58:03 0° 4° (N) 3,245 6.2 -20.8°
Reaches altitude 10° 10:00:40 10° 352° (N) 2,313 5.3 -20.3°
Enters shadow 10:01:30 14° 346° (NNW) 2,054 5.0 -20.2°
